Rochester, MN
on Tuesday, April 2, 2013

Tuesday
Previous Day Next Day
Daily Summary
 ActualAverageRecord
Temperature
Mean Temperature °F 40°F  
Max Temperature 35°F 50°F 75°F (1981)
Min Temperature 20°F 31°F 11°F (1954)
Degree Days
Heating Degree Days 37 25  
Month to date heating degree days 76 50  
Since 1 July heating degree days 6793 6922  
Cooling Degree Days 0 0  
Month to date cooling degree days 0 0  
Year to date cooling degree days 0 0  
Moisture
Dew Point 18°F   
Average Humidity 68    
Maximum Humidity 84    
Minimum Humidity 51    
Precipitation
Precipitation 0.00 in 0.08 in 1.38 in (1967)
Month to date precipitation 0.00 0.16  
Year to date precipitation 4.85 3.73  
Snow
Snow 0.00 in 0.10 in 2.90 in (1979)
Month to date snowfall 0.0 0.3  
Since 1 July snowfall 55.3 48.9  
Snow Depth 1.00 in   
Wind
Wind Speed 9 mph   
Max Wind Speed 18 mph   
Max Gust Speed 23 mph   
Visibility 10 miles   
Events     

Key: T is trace of precipitation, MM is missing value
Source: NWS Daily Summary
Time(CDT)TemperatureDew PointHumidity Pressure Visibility Wind DirectionWind SpeedGust SpeedPrecipitationEvents Conditions
12:54 AM 25.0°F 19.0°F 78% 30.29 in 10.0 miles WNW 10.4 mph - N/A   Clear
1:54 AM 25.0°F 18.0°F 75% 30.29 in 10.0 miles WNW 10.4 mph - N/A   Clear
2:54 AM 23.0°F 17.1°F 78% 30.29 in 10.0 miles NW 9.2 mph - N/A   Clear
3:54 AM 23.0°F 16.0°F 74% 30.28 in 10.0 miles WNW 9.2 mph - N/A   Clear
4:54 AM 21.9°F 16.0°F 78% 30.29 in 10.0 miles WNW 9.2 mph - N/A   Clear
5:54 AM 21.0°F 16.0°F 81% 30.30 in 10.0 miles WNW 8.1 mph - N/A   Clear
6:54 AM 19.9°F 16.0°F 85% 30.31 in 10.0 miles WNW 8.1 mph - N/A   Clear
7:54 AM 21.9°F 17.1°F 82% 30.33 in 10.0 miles NW 9.2 mph - N/A   Clear
8:54 AM 25.0°F 17.1°F 72% 30.34 in 10.0 miles NW 12.7 mph - N/A   Clear
9:54 AM 26.1°F 17.1°F 69% 30.35 in 10.0 miles NW 12.7 mph - N/A   Clear
10:54 AM 28.0°F 16.0°F 61% 30.35 in 10.0 miles NNW 12.7 mph - N/A   Clear
11:54 AM 28.9°F 18.0°F 64% 30.35 in 10.0 miles NW 11.5 mph - N/A   Clear
12:54 PM 30.9°F 19.0°F 61% 30.35 in 10.0 miles NNW 13.8 mph - N/A   Clear
1:54 PM 32.0°F 18.0°F 56% 30.35 in 10.0 miles NNW 13.8 mph - N/A   Clear
2:54 PM 33.1°F 18.0°F 54% 30.34 in 10.0 miles NW 16.1 mph - N/A   Clear
3:54 PM 34.0°F 19.0°F 54% 30.34 in 10.0 miles NW 12.7 mph - N/A   Scattered Clouds
4:54 PM 34.0°F 18.0°F 52% 30.35 in 10.0 miles NNW 13.8 mph - N/A   Clear
5:54 PM 34.0°F 18.0°F 52% 30.35 in 10.0 miles NW 12.7 mph - N/A   Clear
6:54 PM 33.1°F 18.0°F 54% 30.36 in 10.0 miles NNW 8.1 mph - N/A   Clear
7:54 PM 30.0°F 19.0°F 64% 30.36 in 10.0 miles NW 4.6 mph - N/A   Clear
8:54 PM 30.0°F 19.0°F 64% 30.37 in 10.0 miles WNW 3.5 mph - N/A   Clear
9:54 PM 28.9°F 19.0°F 67% 30.39 in 10.0 miles West 3.5 mph - N/A   Clear
10:54 PM 28.9°F 19.9°F 69% 30.39 in 10.0 miles WNW 4.6 mph - N/A   Clear
11:54 PM 28.0°F 16.0°F 61% 30.39 in 10.0 miles North 3.5 mph - N/A   Clear
Astronomy
Sunrise:06:49 AM (CDT) Moon Rise:01:51 AM (CDT)4/2
Sunset:07:38 PM (CDT) Moon Set:11:32 AM (CDT)4/2
Moon Phase
Apr. 02 Apr. 03 Apr. 10 Apr. 18 Apr. 25

Copyright © 2016 The Weather Underground, Inc.